Date_and_time,latitude,longitude,wind_speed,RelWindDirFrom,WindDirFrom,air_pressure,air_temperature,relative_humidity,Temp,platform_speed_wrt_ground,air_pressure_at_mean_sea_level,platform_orientation
2018-05-25 00:00,50.6304466666667,-96.980755,7.2,10.4,28,976.65,20.2,93,9.79,0.0,1002.42,14.5
2018-05-25 00:10,50.6304466666667,-96.9807566666667,6.1,8.3,1,976.38,19.3,97,9.71,0.0,1002.15,14.5
2018-05-25 00:20,50.6304283333333,-96.9807583333333,5.7,7.2,13,976.11,21.5,88,9.79,0.0,1001.76,14.5
2018-05-25 00:30,50.6304383333333,-96.9807583333333,4.5,5.8,355,975.85,22.2,84,10.10,0.0,1001.43,14.5
2018-05-25 00:40,50.6304416666667,-96.9807633333333,5.8,11.3,53,975.87,21.2,85,10.20,0.0,1001.54,14.5
2018-05-25 00:50,50.63048,-96.980795,6.3,9.9,92,975.87,19.3,95,9.88,0.0,1001.65,14.5
2018-05-25 01:00,50.6304516666667,-96.9807733333333,12.3,34.7,167,976.27,19.2,87,9.80,0.0,1002.04,323.4
2018-05-25 01:10,50.6304483333333,-96.980765,14.0,29.4,177,976.02,19.8,84,9.79,0.0,1001.68,323.4
2018-05-25 01:20,50.6304333333333,-96.980745,6.0,11.3,173,975.90,19.8,88,11.15,0.0,1001.51,323.4
2018-05-25 01:30,50.63044,-96.9807533333333,9.6,12.5,204,976.06,20.1,87,11.79,0.0,1001.61,323.4
2018-05-25 01:40,50.630445,-96.9807516666667,9.7,16.8,224,976.31,21.1,82,11.50,0.0,1001.85,323.4
2018-05-25 01:50,50.6304816666667,-96.9807316666667,14.6,21.9,252,976.57,21.3,82,11.33,0.0,1002.15,323.4
2018-05-25 02:00,50.6304533333333,-96.9807616666667,13.5,23.4,273,976.85,20.4,93,11.35,0.0,1002.51,38.0
2018-05-25 02:10,50.6304416666667,-96.9807533333333,8.0,14.3,280,976.89,19.6,99,12.26,0.0,1002.50,38.0
2018-05-25 02:20,50.6304483333333,-96.9807533333333,5.0,8.0,286,976.93,19.5,99,12.78,0.0,1002.51,38.0
2018-05-25 02:30,50.6304316666667,-96.980755,4.3,8.6,310,976.75,19.6,96,12.76,0.0,1002.36,38.0
2018-05-25 02:40,50.6304416666667,-96.9807616666667,6.4,10.4,344,975.95,19.1,98,13.00,0.0,1001.65,38.0
2018-05-25 02:50,50.6304383333333,-96.9807566666667,2.3,5.0,333,976.11,19.1,97,12.71,0.0,1001.81,38.0
2018-05-25 03:00,50.63044,-96.980755,2.7,4.3,53,976.47,19.1,95,12.61,0.0,1002.16,142.0
2018-05-25 03:10,50.63044,-96.980755,3.7,5.6,25,976.71,18.2,99,12.22,0.0,1002.44,142.0
2018-05-25 03:20,50.63044,-96.9807566666667,10.0,17.1,91,977.70,17.0,100,11.76,0.0,1003.50,142.0
2018-05-25 03:30,50.6304433333333,-96.9807583333333,12.3,18.5,124,978.91,15.0,100,11.48,0.0,1004.78,142.0
2018-05-25 03:40,50.630445,-96.9807583333333,7.6,10.4,107,978.41,15.4,101,11.14,0.0,1004.25,142.0
2018-05-25 03:50,50.630445,-96.9807583333333,2.9,6.5,57,978.24,14.5,102,11.09,0.0,1004.16,142.0
2018-05-25 04:00,50.630435,-96.98074,9.4,14.8,69,977.53,14.3,102,11.09,0.0,1003.47,137.0
2018-05-25 04:10,50.6304466666667,-96.9807516666667,11.5,16.4,30,976.45,14.2,103,10.85,0.0,1002.37,137.0
2018-05-25 04:20,50.6304316666667,-96.9807616666667,11.7,15.7,55,976.15,15.1,102,10.47,0.0,1002.02,137.0
2018-05-25 04:30,50.6304416666667,-96.98076,11.7,15.5,80,976.25,15.0,101,10.33,0.0,1002.14,137.0
2018-05-25 04:40,50.6304416666667,-96.9807633333333,14.0,16.0,81,976.15,14.7,101,10.33,0.0,1002.06,137.0
2018-05-25 04:50,50.63044,-96.9807583333333,12.6,15.6,82,976.12,14.9,101,10.39,0.0,1002.02,137.0
2018-05-25 05:00,50.6304383333333,-96.9807583333333,11.3,14.1,93,976.12,14.6,101,10.43,0.0,1002.08,142.0
2018-05-25 05:10,50.63044,-96.9807583333333,9.1,11.5,119,976.27,14.2,102,10.29,0.0,1002.30,142.0
2018-05-25 05:20,50.6304466666667,-96.9807666666667,4.6,6.7,125,976.08,14.1,102,10.34,0.0,1002.20,142.0
2018-05-25 05:30,50.630445,-96.980755,6.3,8.2,103,975.91,14.2,102,10.47,0.0,1002.00,142.0
2018-05-25 05:40,50.630465,-96.9807616666667,4.5,7.7,132,975.90,13.9,103,10.54,0.0,1002.04,142.0
2018-05-25 05:50,50.6304466666667,-96.9807516666667,6.4,9.4,138,975.81,14.2,103,10.58,0.0,1001.95,142.0
2018-05-25 06:00,50.6304466666667,-96.9807566666667,3.3,5.6,172,975.86,13.9,103,10.83,0.0,1002.02,38.0
2018-05-25 06:10,50.6304466666667,-96.9807566666667,5.8,7.2,170,975.87,14.8,103,11.04,0.0,1001.95,38.0
2018-05-25 06:20,50.6304483333333,-96.9807583333333,7.2,8.2,169,975.79,16.3,102,11.03,0.0,1001.80,38.0
2018-05-25 06:30,50.6304483333333,-96.98076,7.8,9.3,179,975.72,16.2,102,11.06,0.0,1001.75,38.0
2018-05-25 06:40,50.6304566666667,-96.9807683333333,6.7,7.5,192,975.69,16.2,102,11.18,0.0,1001.71,38.0
2018-05-25 06:50,50.63044,-96.9807583333333,8.1,9.6,190,975.82,16.4,102,11.76,0.0,1001.85,38.0
2018-05-25 07:00,50.6304466666667,-96.980765,8.0,9.9,194,975.90,16.5,101,11.66,0.0,1001.95,310.6
2018-05-25 07:10,50.6304216666667,-96.980755,7.1,9.9,199,975.96,16.5,101,11.29,0.0,1002.01,310.6
2018-05-25 07:20,50.6304283333333,-96.98076,6.5,8.4,201,975.99,16.6,101,11.39,0.0,1002.03,310.6
2018-05-25 07:30,50.6304433333333,-96.98076,7.0,8.9,208,975.98,16.4,101,11.42,0.0,1002.04,310.6
2018-05-25 07:40,50.6304383333333,-96.980765,6.1,8.1,219,976.01,16.3,102,11.35,0.0,1002.06,310.6
2018-05-25 07:50,50.63044,-96.9807633333333,6.6,9.0,217,976.06,16.2,102,11.34,0.0,1002.13,310.6
2018-05-25 08:00,50.6304433333333,-96.980765,5.7,7.8,224,976.04,16.1,102,11.44,0.0,1002.08,270.0
2018-05-25 08:10,50.6304433333333,-96.9807633333333,4.8,6.4,227,976.12,16.0,102,11.70,0.0,1002.10,270.0
2018-05-25 08:20,50.630435,-96.98075,5.7,7.7,212,975.98,16.0,102,11.49,0.0,1001.96,270.0
2018-05-25 08:30,50.6304516666667,-96.980745,5.7,7.3,207,975.94,16.1,102,11.48,0.0,1001.91,270.0
2018-05-25 08:40,50.6304466666667,-96.9807516666667,5.7,8.3,201,976.00,16.3,102,11.37,0.0,1001.96,270.0
2018-05-25 08:50,50.63045,-96.9807533333333,6.5,8.5,196,975.95,16.2,102,11.22,0.0,1001.90,270.0
2018-05-25 09:00,50.63045,-96.9807533333333,5.5,7.4,198,976.04,16.3,102,11.26,0.0,1001.99,12.6
2018-05-25 09:10,50.6304483333333,-96.98076,6.3,8.6,200,976.06,16.2,102,11.33,0.0,1002.02,12.6
2018-05-25 09:20,50.630445,-96.9807516666667,6.3,9.0,209,976.03,16.4,102,11.34,0.0,1001.98,12.6
2018-05-25 09:30,50.6304366666667,-96.98075,6.6,9.6,217,975.96,16.6,102,11.36,0.0,1001.91,12.6
2018-05-25 09:40,50.630435,-96.9807483333333,6.9,9.1,216,975.94,16.8,101,11.31,0.0,1001.88,12.6
2018-05-25 09:50,50.6304383333333,-96.98075,5.6,7.3,223,976.11,16.7,101,11.34,0.0,1002.07,12.6
2018-05-25 10:00,50.63044,-96.98075,3.8,5.8,234,976.12,16.5,102,11.42,0.0,1002.09,119.2
2018-05-25 10:10,50.63044,-96.9807516666667,3.4,4.5,230,976.02,16.4,102,11.43,0.0,1001.99,119.2
2018-05-25 10:20,50.6304416666667,-96.9807533333333,4.1,5.9,236,975.81,16.3,102,11.49,0.0,1001.78,119.2
2018-05-25 10:30,50.63044,-96.9807533333333,5.0,6.5,244,975.79,16.2,102,11.46,0.0,1001.75,119.2
2018-05-25 10:40,50.6304416666667,-96.980755,5.0,6.8,245,975.72,16.1,102,11.39,0.0,1001.69,119.2
2018-05-25 10:50,50.63044,-96.9807533333333,4.7,6.8,239,975.74,16.1,101,11.38,0.0,1001.70,119.2
2018-05-25 11:00,50.63044,-96.980755,4.7,6.2,226,975.75,15.9,101,11.35,0.0,1001.73,90.0
2018-05-25 11:10,50.6304416666667,-96.980755,4.5,5.8,226,975.75,15.6,101,11.22,0.0,1001.73,90.0
2018-05-25 11:20,50.6304416666667,-96.980755,4.4,6.0,244,975.78,15.4,101,11.50,0.0,1001.76,90.0
2018-05-25 11:30,50.6304433333333,-96.980755,4.4,6.0,248,975.79,15.5,101,11.19,0.0,1001.77,90.0
2018-05-25 11:40,50.6304433333333,-96.980755,4.0,5.6,242,975.83,15.6,101,10.98,0.0,1001.80,90.0
2018-05-25 11:50,50.6304433333333,-96.980755,3.5,4.9,254,975.86,16.0,101,11.07,0.0,1001.82,90.0
2018-05-25 12:00,50.63048,-96.98079,4.3,6.5,259,975.85,16.0,101,11.11,0.0,1001.82,312.0
2018-05-25 12:10,50.6304666666667,-96.9807666666667,3.9,6.2,253,975.86,16.0,101,11.09,0.0,1001.83,312.0
2018-05-25 12:20,50.630455,-96.98076,2.9,4.4,267,975.81,16.1,101,11.05,0.0,1001.78,312.0
2018-05-25 12:30,50.6304466666667,-96.980755,2.8,4.1,277,975.81,16.3,101,10.79,0.0,1001.77,312.0
2018-05-25 12:40,50.63045,-96.9807533333333,3.1,4.6,263,975.78,16.4,101,10.62,0.0,1001.74,312.0
2018-05-25 12:50,50.6304516666667,-96.9807533333333,3.7,5.4,250,975.78,16.5,101,11.21,0.0,1001.75,312.0
2018-05-25 13:00,50.6304383333333,-96.98076,4.4,6.7,252,975.79,16.6,101,11.30,0.0,1001.76,270.0
2018-05-25 13:10,50.6304416666667,-96.9807516666667,4.5,6.3,251,975.98,16.9,100,10.94,0.0,1001.95,270.0
2018-05-25 13:20,50.63045,-96.98073,4.4,6.7,257,976.08,17.4,100,11.10,0.0,1002.02,270.0
2018-05-25 13:30,50.630455,-96.9807633333333,4.0,6.7,255,976.20,17.7,100,11.18,0.0,1002.13,270.0
2018-05-25 13:40,50.6304483333333,-96.9807583333333,4.4,6.7,261,976.25,18.1,100,11.25,0.0,1002.16,270.0
2018-05-25 13:50,50.6304483333333,-96.9807566666667,4.8,8.0,250,976.27,18.4,100,11.32,0.0,1002.16,270.0
2018-05-25 14:00,50.6304466666667,-96.9807566666667,4.9,8.8,280,976.13,18.7,98,10.90,0.0,1002.00,38.0
2018-05-25 14:10,50.6304316666667,-96.9807483333333,5.0,7.6,279,976.06,18.9,96,10.64,0.0,1001.91,38.0
2018-05-25 14:20,50.63045,-96.98076,5.1,8.7,283,976.07,19.0,96,11.70,0.0,1001.91,38.0
2018-05-25 14:30,50.6304383333333,-96.9807416666667,3.4,7.4,270,976.09,19.2,95,12.04,0.0,1001.92,38.0
2018-05-25 14:40,50.630445,-96.9807516666667,2.1,4.7,260,976.13,19.4,92,11.57,0.0,1001.95,38.0
2018-05-25 14:50,50.6304416666667,-96.9807433333333,3.3,5.7,269,976.18,19.5,89,11.76,0.0,1001.99,38.0
2018-05-25 15:00,50.63044,-96.980745,2.8,5.1,293,976.17,19.7,88,11.69,0.0,1001.95,137.7
2018-05-25 15:10,50.6304416666667,-96.9807483333333,4.1,6.4,308,976.22,19.8,85,11.31,0.0,1001.98,137.7
2018-05-25 15:20,50.6304416666667,-96.9807483333333,2.0,4.0,26,976.19,19.3,92,11.40,0.0,1001.96,137.7
2018-05-25 15:30,50.6304433333333,-96.98076,3.2,4.3,86,976.15,18.9,95,11.43,0.0,1001.92,137.7
2018-05-25 15:40,50.63044,-96.9807633333333,5.0,5.9,108,976.14,18.6,98,11.27,0.0,1001.91,137.7
2018-05-25 15:50,50.6304466666667,-96.9807583333333,3.3,5.4,120,976.30,20.2,87,11.08,0.0,1001.99,137.7
2018-05-25 16:00,50.630445,-96.9807733333333,5.0,5.7,125,976.30,20.4,89,11.19,0.0,1001.97,270.0
2018-05-25 16:10,50.6304383333333,-96.9807783333333,5.3,6.7,144,976.27,18.7,99,11.22,0.0,1002.01,270.0
2018-05-25 16:20,50.6304683333333,-96.9807583333333,5.8,7.1,140,976.22,18.5,100,11.48,0.0,1001.96,270.0
2018-05-25 16:30,50.6304483333333,-96.9807466666667,6.6,7.3,149,976.32,18.1,100,11.45,0.0,1002.06,270.0
2018-05-25 16:40,50.6304516666667,-96.9807483333333,6.7,7.4,156,976.42,18.0,100,10.45,0.0,1002.17,270.0
2018-05-25 16:50,50.6304516666667,-96.9807516666667,7.9,8.8,142,976.32,18.1,100,10.49,0.0,1002.05,270.0
2018-05-25 17:00,50.63045,-96.9807533333333,8.1,9.8,143,976.23,17.8,100,10.71,0.0,1001.97,12.6
2018-05-25 17:10,50.63045,-96.9807533333333,8.5,9.6,137,976.14,18.3,100,10.63,0.0,1001.88,12.6
2018-05-25 17:20,50.6304466666667,-96.98072,7.7,9.0,136,976.07,18.1,100,10.43,0.0,1001.84,12.6
2018-05-25 17:30,50.6304483333333,-96.9807233333333,6.3,8.0,141,976.15,18.0,100,10.21,0.0,1001.94,12.6
2018-05-25 17:40,50.6304466666667,-96.9807383333333,9.3,10.4,144,976.10,17.8,100,10.33,0.0,1001.82,12.6
2018-05-25 17:50,50.6304433333333,-96.980755,8.5,10.2,138,975.99,18.7,100,10.57,0.0,1001.65,12.6
2018-05-25 18:00,50.63046,-96.9807633333333,8.5,9.8,145,976.05,18.1,100,10.94,0.0,1001.82,318.8
2018-05-25 18:10,50.6304533333333,-96.9807616666667,9.0,9.7,143,976.02,18.3,100,10.99,0.0,1001.79,318.8
2018-05-25 18:20,50.63045,-96.9807566666667,7.3,9.0,137,975.99,18.9,100,11.02,0.0,1001.75,318.8
2018-05-25 18:30,50.6304733333333,-96.9807833333333,7.9,9.4,136,976.01,18.8,99,10.95,0.0,1001.78,318.8
2018-05-25 18:40,50.6304416666667,-96.9807516666667,9.2,9.7,127,975.92,18.4,100,10.67,0.0,1001.71,318.8
2018-05-25 18:50,50.63044,-96.9807516666667,10.0,10.9,121,975.72,18.1,100,10.56,0.0,1001.53,318.8
2018-05-25 19:00,50.6304533333333,-96.98076,10.4,10.9,121,975.65,18.6,99,10.87,0.0,1001.40,36.6
2018-05-25 19:10,50.6304433333333,-96.980765,11.1,11.6,123,975.59,18.4,100,11.17,0.0,1001.37,36.6
2018-05-25 19:20,50.6304416666667,-96.9807616666667,10.9,11.4,117,975.54,18.2,100,11.58,0.0,1001.33,36.6
2018-05-25 19:30,50.63044,-96.98076,10.0,10.9,114,975.38,18.0,100,11.62,0.0,1001.18,36.6
2018-05-25 19:40,50.6304416666667,-96.98076,9.4,10.3,113,975.16,18.0,100,11.49,0.0,1000.92,36.6
2018-05-25 19:50,50.6304416666667,-96.9807583333333,9.0,10.7,106,975.07,18.8,99,11.50,0.0,1000.82,36.6
2018-05-25 20:00,50.6304416666667,-96.9807583333333,10.2,10.9,104,974.99,19.2,98,11.26,0.0,1000.71,360.0
2018-05-25 20:10,50.6304433333333,-96.9807583333333,10.1,10.8,104,974.90,19.3,96,11.19,0.0,1000.58,360.0
2018-05-25 20:20,50.6304433333333,-96.9807583333333,9.2,10.3,102,974.80,19.5,93,11.76,0.0,1000.47,360.0
2018-05-25 20:30,50.6304433333333,-96.9807583333333,8.2,9.6,98,974.84,19.4,93,11.66,0.0,1000.53,360.0
2018-05-25 20:40,50.6304433333333,-96.9807583333333,9.3,11.0,96,974.67,19.3,94,11.38,0.0,1000.38,360.0
2018-05-25 20:50,50.63045,-96.9807633333333,8.4,9.6,90,974.53,19.3,94,11.26,0.0,1000.21,360.0
2018-05-25 21:00,50.6304416666667,-96.9807566666667,9.0,9.9,94,974.40,19.4,89,11.28,0.0,1000.09,360.0
2018-05-25 21:10,50.6304433333333,-96.9807583333333,7.8,8.6,93,974.36,19.5,89,11.39,0.0,1000.05,360.0
2018-05-25 21:20,50.63044,-96.9807016666667,7.4,8.3,91,974.34,19.2,92,11.38,0.0,1000.05,360.0
2018-05-25 21:30,50.63044,-96.9807366666667,8.3,10.5,88,974.09,18.5,97,11.65,0.0,999.82,360.0
2018-05-25 21:40,50.63044,-96.980745,10.3,12.0,85,973.92,18.2,95,11.93,0.0,999.63,360.0
2018-05-25 21:50,50.6304416666667,-96.98076,9.8,11.5,79,973.80,18.0,98,11.92,0.0,999.50,360.0
2018-05-25 22:00,50.63044,-96.9807583333333,8.7,9.6,74,973.72,17.2,100,12.20,0.0,999.44,142.0
2018-05-25 22:10,50.6304433333333,-96.9807583333333,9.0,9.8,67,973.47,17.1,100,11.93,0.0,999.19,142.0
2018-05-25 22:20,50.6304616666667,-96.98078,7.1,8.6,63,973.48,16.9,100,11.53,0.0,999.21,142.0
2018-05-25 22:30,50.6304716666667,-96.980805,4.0,7.0,11,973.47,16.6,100,11.75,0.0,999.22,142.0
2018-05-25 22:40,50.630455,-96.9807533333333,6.6,8.8,46,973.40,17.2,96,12.19,0.0,999.12,142.0
2018-05-25 22:50,50.6304466666667,-96.9807583333333,5.4,7.0,32,973.57,16.9,96,12.23,0.0,999.30,142.0
2018-05-25 23:00,50.630445,-96.9807583333333,7.3,9.3,29,973.54,17.1,93,12.34,0.0,999.26,0.0
2018-05-25 23:10,50.6304433333333,-96.9807583333333,11.7,14.2,25,973.14,17.2,89,12.23,0.0,998.85,0.0
2018-05-25 23:20,50.630445,-96.9807616666667,10.1,14.2,17,973.31,17.5,89,12.27,0.0,999.05,0.0
2018-05-25 23:30,50.63044,-96.9807466666667,6.5,9.8,2,973.73,17.5,92,12.37,0.0,999.49,0.0
2018-05-25 23:40,50.6304483333333,-96.9807616666667,5.7,7.9,332,973.91,18.2,87,12.48,0.0,999.66,0.0
